EDT,Max TemperatureF,Mean TemperatureF,Min TemperatureF,Max Dew PointF,MeanDew PointF,Min DewpointF,Max Humidity, Mean Humidity, Min Humidity, Max Sea Level PressureIn, Mean Sea Level PressureIn, Min Sea Level PressureIn, Max VisibilityMiles, Mean VisibilityMiles, Min VisibilityMiles, Max Wind SpeedMPH, Mean Wind SpeedMPH, Max Gust SpeedMPH,PrecipitationIn, CloudCover, Events, WindDirDegrees
2011-10-1,61,52,43,44,37,33,82,61,39,29.94,29.86,29.77,10,10,10,16,6,28,T,4,Rain,305
2011-10-2,55,48,41,42,36,33,100,73,46,30.02,29.96,29.88,10,10,10,15,4,23,0.05,5,,279
2011-10-3,62,53,44,44,42,39,100,74,48,30.17,30.07,29.97,10,10,8,10,3,17,0.01,5,Rain,259
2011-10-4,71,55,39,49,45,40,96,70,44,30.25,30.20,30.14,10,10,10,12,3,17,0.00,1,,327
2011-10-5,77,59,40,52,47,42,100,67,33,30.29,30.24,30.19,10,10,5,7,1,12,0.00,0,,322
2011-10-6,72,61,49,52,49,44,96,71,45,30.41,30.36,30.29,10,10,10,14,3,18,0.00,0,,47
2011-10-7,74,60,45,54,50,45,100,73,46,30.49,30.43,30.39,10,7,1,9,2,15,0.00,0,,119
2011-10-8,73,59,45,54,48,45,100,71,41,30.55,30.50,30.45,10,5,0,9,2,14,0.00,0,Fog,50
2011-10-9,73,59,45,52,48,44,100,68,35,30.50,30.43,30.36,10,10,9,10,2,13,0.00,0,,55
2011-10-10,75,63,51,56,53,48,93,71,49,30.36,30.26,30.17,10,10,10,13,4,16,0.00,0,,45
2011-10-11,68,64,59,59,57,54,97,80,63,30.16,30.10,30.02,10,9,5,14,6,18,0.16,7,Rain,33
2011-10-12,68,64,60,66,63,59,100,97,93,30.02,29.89,29.80,10,5,2,17,5,24,1.33,8,Rain,52
2011-10-13,73,66,59,66,64,60,100,87,73,29.79,29.67,29.57,10,6,0,23,7,33,0.43,7,Fog-Rain-Thunderstorm,139
2011-10-14,70,59,47,61,53,33,100,65,30,29.79,29.60,29.52,10,8,1,18,6,31,0.11,4,Rain,226
2011-10-15,69,57,44,42,37,33,92,60,27,30.01,29.89,29.81,10,10,10,18,6,29,0.00,0,,233
2011-10-16,73,60,47,47,41,35,77,54,31,30.10,29.99,29.86,10,10,10,18,6,23,0.00,0,,222
2011-10-17,76,64,51,58,53,47,93,70,46,29.90,29.84,29.80,10,10,9,13,3,17,0.00,0,,214
2011-10-18,80,66,51,60,56,52,100,71,42,29.87,29.80,29.74,10,10,7,14,3,16,0.02,2,Rain,136
2011-10-19,63,57,50,63,58,50,100,97,93,29.70,29.46,29.30,10,6,1,21,8,33,0.21,8,Rain,51
2011-10-20,58,51,44,46,40,34,89,65,40,29.89,29.64,29.39,10,10,10,21,10,28,0.00,4,,225
2011-10-21,63,52,41,42,38,37,86,65,43,30.13,30.03,29.89,10,10,10,12,4,18,0.00,1,,276
2011-10-22,61,48,35,41,38,35,100,71,42,30.19,30.14,30.09,10,10,8,9,1,14,0.00,0,,225
2011-10-23,66,51,35,45,41,36,100,70,40,30.19,30.13,30.09,10,9,4,10,2,14,0.00,0,,184
2011-10-24,70,56,41,49,45,41,100,70,40,30.14,30.09,30.00,10,9,2,9,2,17,T,1,Rain,223
2011-10-25,68,54,39,45,40,34,76,72,68,30.27,30.19,30.11,10,10,10,10,3,17,0.00,0,,239
2011-10-26,75,58,40,50,45,39,93,66,38,30.12,29.97,29.85,10,10,10,13,6,20,0.00,0,,209
2011-10-27,77,65,52,52,48,37,83,63,43,29.96,29.79,29.67,10,10,10,17,8,30,0.00,3,,239
2011-10-28,54,45,36,38,35,29,100,75,50,30.21,30.15,29.99,10,9,4,17,10,24,0.16,8,Rain,29
2011-10-29,52,41,30,37,33,27,100,71,42,30.14,30.01,29.95,10,9,3,16,7,25,0.47,5,Rain,346
2011-10-30,57,42,27,35,30,26,100,66,32,30.36,30.27,30.12,10,10,9,8,3,12,0.00,0,,169
2011-10-31,54,42,30,35,31,27,100,68,35,30.37,30.30,30.23,10,10,10,9,2,13,0.00,1,,148